Wetbulb
58.52 57.47 56.65 55.87 55.35 54.28 54.26 53.70 53.16 52.98 53.09 52.92 53.03 53.65 53.87 54.45 53.93 53.59 51.51 51.09 52.86 58.56 55.48 53.16 53.27 53.18 53.00 50.82 54.01 53.79 45.91 43.26 45.78 47.13 48.37 51.76 50.55 52.77 53.89 52.10 53.40 54.72 54.74 56.93 58.82
58.85 58.12 57.47 56.67 55.93 54.70 54.25 53.37 53.11 52.87 52.95 52.78 52.60 53.03 54.10 54.20 51.21 52.02 53.88 58.03 55.25 57.70 49.24 50.45 49.66 50.63 49.13 49.55 50.28 48.21 45.38 46.11 49.92 49.88 48.45 49.74 49.66 49.44 48.92 49.66 50.75 52.49 55.89 57.39 56.55
59.45 58.72 57.95 57.47 56.53 55.06 54.39 53.28 52.87 52.75 52.68 52.57 52.27 53.20 53.47 53.01 50.80 52.84 58.62 56.71 56.12 55.41 53.41 53.56 51.71 49.65 46.64 48.37 48.49 48.07 44.31 48.04 48.82 50.00 49.20 48.14 48.29 50.22 48.31 47.03 50.26 49.94 51.70 53.81 54.64
59.48 59.13 58.75 58.03 57.15 55.59 54.73 53.30 52.56 52.63 52.45 52.34 51.94 52.69 53.46 52.59 45.30 54.30 59.31 58.26 57.37 57.46 55.99 51.57 49.65 46.69 45.10 44.56 47.96 44.81 47.52 48.14 48.55 48.37 47.77 46.49 48.56 46.86 47.61 48.52 50.75 50.97 52.24 53.42 52.99
58.53 58.46 58.56 58.28 57.56 56.51 55.23 53.39 52.59 52.09 52.05 52.05 51.78 52.30 52.48 50.40 51.74 55.59 59.78 57.94 55.51 54.54 50.34 48.64 47.00 46.68 44.26 46.12 47.11 45.48 46.24 47.18 47.77 47.65 46.71 47.17 45.52 45.24 45.32 47.58 49.30 49.98 50.73 53.82 51.99
57.89 57.90 57.87 57.87 57.33 56.41 55.10 53.31 52.39 52.01 51.80 51.79 51.19 51.57 49.11 44.96 52.96 54.42 54.27 54.75 53.75 52.60 49.87 48.87 46.52 47.29 45.23 45.01 44.29 45.94 45.94 46.19 46.33 46.35 45.99 45.04 44.79 44.94 45.89 47.88 47.38 49.23 49.44 50.70 51.14
58.16 57.69 57.69 57.48 56.90 56.07 54.95 53.40 52.50 51.67 51.55 51.40 51.11 50.25 47.01 48.55 56.68 54.18 52.49 49.86 51.46 51.47 48.19 50.24 50.44 47.90 48.19 45.15 47.42 46.10 42.75 44.40 44.73 45.13 44.60 46.12 42.41 42.81 47.33 48.26 47.56 48.50 49.34 49.75 50.60
58.78 58.06 57.25 56.75 56.07 55.14 53.92 52.78 51.97 51.22 51.19 51.26 52.91 50.12 45.20 56.45 53.86 51.31 51.83 50.03 51.27 50.69 49.96 50.93 51.24 48.37 46.10 46.92 44.76 42.47 43.01 39.11 44.87 47.11 45.48 44.10 38.37 45.05 48.06 47.29 46.81 47.88 48.71 49.07 49.41
58.24 57.78 56.85 55.57 55.19 53.93 52.90 51.21 51.30 51.11 50.54 52.63 50.27 49.61 47.76 52.56 48.98 51.57 50.22 47.61 49.05 50.39 50.50 50.59 49.11 45.48 45.39 41.48 39.88 42.85 37.68 40.22 42.94 46.54 44.74 43.33 40.22 45.04 47.42 46.32 45.93 46.98 47.06 47.72 48.82
57.91 57.35 56.49 55.37 54.34 52.81 51.28 49.65 50.85 49.32 51.42 53.70 52.61 46.99 51.04 47.60 50.18 51.90 52.06 51.36 47.06 48.61 47.26 46.80 44.90 41.21 41.99 39.79 33.68 38.37 39.78 41.47 41.18 44.75 44.53 42.49 41.45 44.14 46.34 46.34 46.37 46.54 47.42 47.77 48.04
57.63 57.33 56.51 54.83 53.30 51.40 48.76 46.47 43.87 45.76 49.55 49.30 50.98 49.91 51.89 54.90 52.77 50.13 51.96 50.01 47.10 45.61 40.86 44.83 39.82 37.36 40.90 43.41 43.51 42.44 40.78 39.63 42.20 44.88 42.47 41.83 41.64 43.06 45.33 45.71 45.36 45.84 46.18 47.32 48.38
57.01 56.89 55.61 54.23 52.51 50.15 48.74 44.38 47.75 46.39 43.57 52.32 50.95 51.69 53.56 53.76 47.94 50.18 51.95 46.69 45.75 40.28 43.15 41.26 38.26 42.83 44.75 44.64 42.75 41.21 39.36 39.01 41.47 42.96 42.14 41.07 40.28 42.81 44.23 44.49 45.04 45.29 46.93 48.19 48.55
56.27 56.39 54.77 52.78 50.50 48.59 46.30 45.86 52.30 51.23 43.54 48.84 51.93 51.18 51.70 52.00 47.57 47.62 50.37 46.46 43.51 42.05 41.98 40.08 42.97 46.13 43.73 41.46 39.50 39.82 38.74 38.47 37.74 40.67 41.54 39.75 37.53 40.08 43.79 45.97 46.65 47.46 48.12 47.87 46.77
55.91 54.81 52.28 50.42 48.05 49.00 45.83 51.61 53.59 51.21 40.72 42.27 46.59 48.28 51.15 48.69 43.61 49.78 50.49 47.04 43.79 40.43 41.68 41.23 44.13 42.18 41.44 40.04 40.61 36.12 41.34 40.01 38.34 36.35 31.45 39.37 29.86 37.21 40.84 41.96 44.57 45.57 45.42 44.62 44.80
54.82 52.48 50.13 52.49 49.47 45.61 51.22 52.52 52.14 49.82 27.09 43.56 43.60 48.81 46.98 43.62 43.72 43.99 50.34 45.85 41.11 42.03 41.95 38.65 40.25 39.89 38.61 38.71 41.01 37.72 41.30 39.31 38.11 35.23 34.34 34.32 31.60 35.97 40.86 39.47 40.80 42.33 42.81 42.88 43.31
53.57 51.25 50.71 47.71 48.20 51.30 52.35 48.94 48.91 36.78 27.72 41.04 43.05 40.83 41.16 42.53 42.92 43.59 42.97 44.95 44.39 40.35 40.61 39.93 44.01 42.37 40.55 41.72 41.32 41.40 38.32 37.62 37.09 34.96 27.56 32.97 32.86 33.52 37.22 38.65 38.64 40.03 40.66 40.93 40.60
52.66 51.30 51.40 49.91 45.11 50.38 48.97 44.74 35.16 30.90 42.69 39.74 40.06 41.93 40.88 39.91 40.40 40.81 39.39 38.30 36.68 33.37 34.21 38.91 39.66 42.34 42.67 37.90 40.36 39.07 34.49 26.77 25.66 27.24 26.60 36.44 33.99 33.65 38.10 38.67 38.27 37.64 38.32 38.38 38.45
52.48 50.76 52.23 51.52 51.76 50.01 45.50 38.83 30.09 37.24 38.59 42.46 41.25 41.20 38.22 41.22 40.01 39.91 38.64 37.18 40.55 39.10 35.77 32.50 31.30 39.80 42.29 38.85 35.80 36.03 34.77 27.91 20.24 22.67 26.89 34.66 28.85 32.13 39.90 39.99 39.07 38.54 38.05 37.26 35.83
52.16 48.21 46.23 47.84 49.23 48.56 41.86 32.40 34.11 38.00 42.70 41.90 40.26 37.15 37.10 39.98 39.60 39.11 38.13 37.45 40.33 41.21 33.65 32.79 33.24 40.07 39.72 40.07 38.62 34.41 30.99 36.44 29.79 30.72 25.71 29.19 33.43 37.86 37.88 35.61 35.82 36.03 35.63 34.23 33.88
45.74 43.47 42.70 48.12 48.95 45.17 38.43 34.16 38.84 43.89 44.95 43.68 36.61 38.69 35.48 38.10 36.15 36.30 36.89 40.52 39.29 41.07 40.96 36.32 29.13 37.36 38.88 40.35 38.82 35.92 37.68 28.32 29.97 19.44 18.42 27.28 29.36 27.05 29.03 30.09 32.42 32.87 32.93 33.09 33.23
44.82 38.43 43.61 47.11 47.20 39.86 32.73 35.85 41.24 46.00 46.42 40.82 39.83 38.11 38.67 37.83 39.00 36.83 36.83 38.17 39.62 38.54 39.52 37.03 33.54 32.54 37.04 34.64 32.93 33.89 32.15 31.86 31.22 28.15 21.03 20.55 26.19 31.32 28.56 29.83 30.21 31.53 32.83 32.66 31.93
42.01 33.51 43.99 46.04 33.69 33.68 34.78 40.45 43.22 44.20 46.74 42.31 41.78 40.09 39.09 39.22 38.07 37.90 36.33 38.73 40.42 39.41 34.10 37.61 33.46 27.55 31.35 37.94 38.67 36.39 33.10 33.20 25.85 23.56 27.99 26.85 26.51 32.11 30.59 31.87 31.40 30.70 31.85 32.15 31.88
36.03 34.78 43.79 42.86 30.81 31.94 37.73 40.41 43.12 42.55 42.73 39.65 38.95 40.27 41.86 38.75 34.70 37.74 37.72 39.50 39.94 37.74 35.37 36.66 30.65 24.10 26.75 32.65 35.75 32.33 34.58 35.06 34.44 32.24 26.14 23.41 25.47 32.07 31.90 30.67 30.67 29.28 30.45 30.54 30.22
36.18 29.90 33.14 36.05 37.45 35.92 36.84 38.71 38.58 44.33 42.72 41.82 39.55 40.82 39.39 36.93 38.91 34.62 36.11 37.92 39.17 37.74 38.03 37.76 31.80 27.62 22.78 27.59 31.92 28.97 32.78 34.96 33.42 27.42 27.49 28.04 26.42 27.69 28.20 28.03 28.46 28.77 29.37 29.14 28.90
38.67 34.52 37.20 28.52 31.92 34.72 38.74 39.14 37.61 38.17 41.29 41.79 38.52 38.72 36.89 33.18 35.10 34.29 36.53 36.11 36.95 38.63 36.70 35.21 26.90 29.15 30.12 31.20 31.36 31.04 30.87 32.22 30.77 31.95 27.62 29.87 28.42 26.81 27.40 27.54 27.87 28.65 28.46 27.08 27.11
35.23 38.98 39.55 39.55 36.86 34.02 34.77 38.33 37.98 39.63 38.92 37.36 36.56 38.37 38.21 34.63 35.28 33.17 36.08 35.76 32.56 36.21 34.19 35.57 26.69 30.31 25.56 30.96 31.22 28.94 31.63 32.32 32.20 32.59 31.32 29.64 28.49 29.51 29.87 29.50 27.78 27.04 26.22 25.18 25.39
44.67 47.26 42.89 38.69 36.40 33.18 34.39 37.89 38.97 41.47 41.53 40.91 39.48 38.03 36.48 37.21 39.59 40.92 39.77 39.72 37.92 34.63 33.05 32.57 30.97 26.87 23.44 32.21 31.50 26.84 31.27 32.59 33.49 33.48 31.91 27.21 28.78 28.96 27.18 25.78 25.38 25.73 25.64 24.39 23.99
MSLP
1019.16 1019.18 1019.28 1019.42 1019.35 1019.32 1019.14 1019.18 1018.89 1018.63 1018.45 1018.04 1017.70 1017.43 1016.70 1016.07 1015.48 1013.65 1013.04 1012.66 1012.35 1012.49 1012.51 1011.80 1010.59 1010.02 1009.59 1009.07 1008.28 1007.86 1007.59 1006.12 1005.13 1004.09 1003.40 1003.25 1003.19 1003.75 1004.43 1004.71 1005.04 1005.13 1005.04 1005.11 1004.94
1018.81 1018.88 1018.88 1019.04 1019.19 1019.13 1019.20 1018.96 1019.04 1018.77 1018.33 1018.17 1017.57 1017.10 1016.54 1016.26 1015.22 1013.11 1012.75 1012.35 1012.28 1012.39 1012.26 1010.99 1010.22 1009.54 1009.01 1008.46 1008.03 1007.89 1006.94 1005.74 1005.03 1004.48 1004.24 1004.44 1004.86 1004.96 1005.33 1005.27 1005.24 1005.21 1005.15 1005.21 1005.48
1018.49 1018.69 1018.73 1018.83 1018.91 1019.07 1018.95 1018.96 1018.88 1018.65 1018.37 1018.00 1017.66 1017.08 1016.24 1016.17 1014.22 1012.04 1012.44 1012.56 1012.37 1012.13 1011.98 1010.70 1010.02 1009.85 1009.06 1008.18 1007.59 1007.40 1006.66 1006.36 1005.81 1005.39 1005.35 1005.43 1005.68 1005.95 1005.79 1005.75 1006.06 1006.02 1005.85 1005.74 1005.98
1018.08 1018.27 1018.49 1018.55 1018.79 1018.71 1018.75 1018.95 1018.67 1018.58 1018.44 1018.06 1017.76 1017.31 1016.13 1015.42 1013.31 1011.97 1012.30 1012.37 1012.45 1011.92 1011.22 1010.43 1010.00 1009.55 1009.14 1008.18 1007.13 1006.90 1006.72 1006.33 1006.10 1005.89 1006.08 1006.02 1006.30 1006.36 1006.24 1006.13 1006.23 1006.08 1005.81 1005.92 1006.41
1017.60 1017.80 1017.98 1018.31 1018.28 1018.51 1018.57 1018.76 1018.72 1018.51 1018.44 1018.19 1017.84 1017.57 1016.10 1014.09 1012.07 1012.36 1012.42 1012.39 1012.24 1011.54 1010.84 1010.17 1009.87 1009.42 1008.85 1008.17 1007.46 1006.67 1006.52 1006.37 1006.21 1006.14 1006.23 1006.55 1006.43 1006.55 1006.52 1006.40 1006.22 1006.20 1005.93 1005.97 1006.46
1017.01 1017.26 1017.56 1017.75 1018.06 1018.12 1018.42 1018.58 1018.42 1018.54 1018.32 1018.24 1017.99 1017.92 1016.41 1013.55 1011.14 1011.74 1011.71 1011.62 1011.45 1010.81 1010.49 1010.21 1009.73 1009.54 1009.12 1008.80 1008.26 1007.64 1006.98 1006.54 1006.57 1006.30 1006.06 1006.10 1006.23 1006.43 1006.12 1006.03 1005.91 1005.55 1005.92 1006.11 1006.30
1016.33 1016.58 1017.01 1017.13 1017.65 1017.80 1018.18 1018.32 1018.34 1018.38 1018.24 1018.18 1018.08 1017.89 1015.84 1012.87 1010.79 1011.26 1011.77 1011.41 1010.84 1010.52 1010.35 1010.00 1009.93 1009.94 1009.32 1008.80 1008.40 1008.13 1007.45 1006.97 1006.49 1005.80 1005.34 1005.43 1005.65 1005.90 1005.17 1005.06 1005.24 1005.81 1005.67 1005.92 1006.01
1015.85 1016.26 1016.65 1016.63 1017.32 1017.62 1018.02 1018.26 1018.21 1018.27 1018.20 1017.96 1017.91 1017.59 1014.51 1011.50 1011.33 1011.25 1011.36 1011.21 1010.99 1010.50 1010.53 1010.41 1010.45 1010.39 1010.07 1009.48 1008.69 1008.25 1007.50 1006.41 1005.40 1004.23 1004.90 1005.53 1005.38 1005.22 1004.66 1005.06 1005.20 1005.60 1005.63 1005.59 1006.02
1015.66 1015.61 1016.18 1016.49 1016.96 1017.40 1017.94 1018.15 1018.06 1017.98 1017.90 1017.54 1017.72 1016.48 1012.85 1011.71 1011.14 1010.56 1010.95 1010.66 1010.35 1010.38 1010.45 1010.59 1010.57 1010.57 1010.10 1009.36 1008.64 1007.85 1006.35 1005.63 1004.51 1004.02 1004.60 1005.17 1005.10 1004.93 1004.60 1004.63 1005.09 1005.48 1005.81 1005.98 1006.06
1015.05 1015.11 1015.44 1016.26 1016.65 1017.35 1017.99 1018.02 1017.81 1017.88 1017.19 1016.38 1016.18 1015.35 1012.29 1010.52 1010.13 1010.51 1010.36 1010.48 1010.32 1010.20 1010.26 1010.63 1010.57 1010.18 1009.50 1009.11 1007.61 1006.72 1005.71 1004.91 1004.32 1004.01 1004.17 1004.22 1004.08 1004.31 1004.32 1004.31 1004.37 1004.50 1004.75 1005.59 1006.01
1014.35 1014.74 1014.98 1015.87 1016.50 1017.21 1018.16 1018.18 1017.79 1017.11 1016.08 1013.71 1012.44 1011.66 1010.58 1009.89 1010.23 1009.95 1009.72 1010.31 1010.23 1010.19 1009.91 1009.81 1009.88 1008.97 1008.25 1007.68 1007.15 1006.62 1006.16 1005.57 1005.36 1005.26 1005.20 1004.39 1004.14 1003.91 1004.08 1004.38 1004.05 1003.94 1004.33 1004.78 1005.57
1013.87 1014.19 1015.02 1015.47 1016.48 1017.05 1017.47 1017.27 1016.03 1016.21 1014.42 1012.46 1011.80 1010.52 1010.21 1009.97 1009.49 1009.46 1009.29 1009.88 1009.88 1009.77 1009.66 1009.34 1008.44 1008.18 1007.79 1007.46 1007.31 1006.88 1006.54 1006.37 1006.11 1006.14 1005.77 1004.80 1004.40 1003.92 1004.25 1004.04 1003.84 1004.01 1004.45 1006.22 1007.51
1013.51 1014.03 1014.45 1015.40 1016.55 1017.33 1016.83 1016.27 1015.43 1015.12 1013.91 1010.61 1009.26 1008.46 1008.57 1009.42 1008.81 1008.79 1008.98 1009.18 1009.32 1009.18 1009.24 1008.38 1007.35 1006.85 1006.95 1007.24 1007.61 1007.23 1007.11 1006.99 1006.79 1006.45 1006.13 1005.84 1005.07 1004.48 1003.81 1003.27 1003.35 1004.33 1006.05 1007.79 1009.27
1013.30 1013.73 1014.72 1015.74 1016.83 1016.44 1016.09 1015.62 1015.05 1015.13 1013.03 1008.72 1007.36 1007.59 1007.64 1008.82 1008.82 1008.14 1008.51 1008.55 1009.09 1008.87 1008.60 1007.91 1007.72 1007.31 1007.00 1006.80 1007.50 1007.00 1007.89 1007.63 1007.50 1007.46 1006.83 1006.63 1004.99 1005.39 1004.68 1004.41 1004.68 1006.48 1008.34 1009.92 1010.63
1012.95 1013.81 1014.38 1014.64 1015.12 1015.64 1014.72 1015.04 1015.00 1015.08 1012.18 1007.63 1008.14 1008.43 1008.46 1008.83 1008.31 1007.91 1008.47 1008.28 1008.37 1008.63 1008.78 1007.66 1007.41 1007.15 1006.95 1007.46 1007.95 1007.48 1008.00 1008.30 1008.52 1008.53 1008.40 1006.46 1006.88 1005.63 1005.34 1005.65 1007.85 1009.47 1010.77 1011.70 1012.40
1012.92 1013.46 1014.26 1014.89 1014.83 1014.45 1014.32 1015.00 1015.42 1014.76 1010.31 1007.44 1007.73 1008.24 1008.45 1008.82 1008.34 1008.56 1008.64 1009.17 1008.66 1008.93 1008.84 1007.73 1007.32 1007.29 1007.45 1007.80 1008.24 1008.57 1009.05 1009.27 1009.30 1009.20 1008.68 1007.26 1007.26 1005.96 1006.88 1008.58 1010.00 1011.41 1012.40 1013.70 1014.82
1012.90 1013.36 1013.80 1013.93 1014.20 1014.47 1014.85 1015.44 1015.27 1012.34 1008.05 1006.71 1006.93 1007.41 1007.77 1007.88 1008.21 1008.39 1008.68 1008.81 1008.55 1008.71 1008.36 1007.72 1007.20 1007.14 1007.58 1008.38 1009.01 1009.33 1010.02 1009.74 1009.30 1008.88 1007.94 1007.34 1007.23 1008.70 1009.77 1011.29 1012.43 1013.39 1014.39 1015.54 1016.26
1012.60 1013.43 1013.37 1013.22 1013.54 1014.35 1015.09 1015.25 1012.88 1009.03 1007.71 1006.47 1006.68 1006.94 1007.25 1007.24 1007.75 1008.04 1008.25 1008.15 1008.26 1008.46 1008.13 1007.92 1007.09 1007.04 1007.44 1008.21 1009.20 1009.61 1009.93 1010.13 1009.44 1009.43 1008.96 1008.98 1008.53 1009.84 1011.27 1012.89 1014.25 1015.04 1015.90 1016.68 1017.07
1012.36 1013.84 1014.21 1013.82 1013.36 1014.13 1014.60 1013.51 1010.61 1007.83 1006.73 1005.57 1006.27 1006.42 1006.95 1007.08 1007.19 1007.64 1008.10 1008.14 1007.70 1007.76 1008.53 1008.50 1007.69 1007.99 1008.55 1009.11 1009.86 1010.28 1010.33 1010.47 1010.31 1010.45 1010.51 1010.17 1009.82 1011.08 1013.17 1014.65 1015.60 1016.07 1016.55 1016.89 1017.45
1012.49 1013.71 1014.65 1014.17 1013.55 1013.85 1014.00 1012.07 1009.27 1007.56 1006.30 1006.00 1005.73 1006.22 1006.06 1006.42 1007.35 1007.89 1007.69 1007.70 1008.12 1008.38 1009.04 1009.54 1009.50 1009.37 1009.22 1009.27 1010.05 1010.70 1011.26 1011.38 1011.47 1011.43 1011.34 1010.49 1011.13 1014.00 1015.64 1016.64 1017.18 1017.53 1018.03 1018.56 1019.05
1012.75 1013.74 1014.43 1014.56 1015.06 1014.26 1011.88 1010.46 1009.25 1007.62 1006.54 1006.19 1005.64 1005.79 1005.65 1005.98 1006.10 1007.06 1007.47 1008.36 1008.77 1009.55 1010.18 1010.46 1010.62 1010.09 1010.00 1009.69 1009.87 1010.54 1010.87 1011.77 1012.31 1012.53 1012.34 1012.75 1014.37 1016.46 1017.77 1018.43 1018.80 1019.06 1019.20 1019.47 1019.83
1012.11 1013.62 1014.33 1014.46 1015.27 1014.03 1011.72 1009.13 1008.81 1007.14 1006.67 1006.35 1006.20 1006.18 1005.63 1006.19 1006.26 1006.63 1007.45 1008.18 1009.50 1010.21 1011.00 1011.34 1011.59 1011.21 1010.76 1010.08 1010.22 1010.48 1010.65 1011.19 1011.96 1012.70 1012.82 1013.81 1015.61 1017.68 1018.87 1019.44 1019.86 1020.04 1020.08 1020.08 1020.60
1011.96 1013.84 1014.39 1013.89 1013.55 1013.22 1011.55 1009.92 1008.49 1007.17 1005.97 1006.52 1006.45 1006.63 1006.25 1006.34 1006.99 1007.38 1008.34 1010.07 1010.71 1011.30 1011.87 1012.18 1012.64 1012.35 1011.30 1010.78 1010.70 1010.69 1011.12 1011.28 1011.76 1013.26 1013.40 1014.75 1016.48 1018.32 1019.22 1020.01 1020.51 1021.00 1020.81 1021.13 1021.62
1011.47 1013.08 1014.33 1013.96 1012.72 1011.57 1010.62 1009.03 1008.14 1007.12 1006.33 1006.37 1006.59 1006.73 1006.63 1006.97 1007.36 1008.32 1008.87 1010.53 1011.62 1012.27 1013.08 1013.46 1013.57 1013.58 1012.97 1012.43 1012.55 1012.43 1012.44 1011.67 1011.87 1012.59 1013.30 1014.59 1016.98 1018.54 1019.70 1020.58 1021.32 1021.62 1021.88 1022.29 1022.72
1009.42 1009.66 1009.65 1011.55 1011.23 1010.54 1009.82 1008.27 1007.31 1006.72 1006.73 1006.48 1006.67 1006.69 1007.13 1007.72 1007.88 1008.54 1009.52 1010.95 1012.29 1012.93 1013.61 1013.99 1014.18 1014.23 1013.91 1013.38 1012.85 1012.43 1012.17 1012.14 1012.39 1012.82 1013.90 1015.21 1017.00 1018.89 1020.39 1021.43 1022.12 1022.59 1022.95 1023.26 1023.37
1007.60 1006.42 1007.85 1007.32 1009.58 1010.15 1009.59 1007.53 1006.66 1006.29 1006.27 1006.39 1006.69 1006.87 1007.50 1007.82 1008.25 1008.81 1009.52 1010.43 1012.04 1012.97 1013.79 1014.17 1014.61 1014.57 1014.03 1013.34 1012.86 1012.42 1012.33 1012.35 1012.53 1013.29 1014.41 1015.91 1017.53 1019.48 1021.00 1022.13 1022.77 1023.42 1023.89 1024.08 1024.22
1005.98 1005.19 1005.43 1006.20 1007.51 1008.58 1007.32 1006.98 1006.33 1006.38 1006.02 1006.43 1006.82 1007.40 1007.73 1008.14 1008.73 1009.31 1009.79 1010.17 1011.38 1012.48 1013.39 1014.26 1014.80 1015.01 1013.67 1012.57 1012.39 1012.43 1011.97 1012.03 1012.65 1013.55 1014.59 1015.95 1017.49 1019.77 1021.33 1022.66 1023.60 1024.14 1024.54 1024.84 1024.84
Wind_Speed
10 10 8 8 7 5 5 8 9 10 12 14 16 18 19 19 24 13 9 2 3 4 6 12 8 11 10 14 14 10 8 13 17 17 12 17 12 5 6 3 11 10 10 10 13
12 12 11 10 8 6 6 6 9 11 12 15 17 19 20 20 20 12 1 2 3 3 6 10 10 9 9 11 11 9 10 16 14 14 13 13 13 13 15 15 13 11 11 7 10
12 12 12 11 9 8 6 6 8 10 13 15 18 19 20 18 12 7 4 2 1 3 9 13 10 13 12 12 14 14 15 16 17 18 14 12 14 14 14 14 12 13 11 11 10
14 13 13 12 10 9 7 8 7 9 12 15 18 21 24 6 6 6 7 6 3 4 10 8 7 10 13 15 14 16 18 18 17 14 13 15 13 16 15 14 14 15 13 5 8
14 14 14 14 12 10 8 7 7 8 12 14 16 20 13 5 12 6 7 7 7 9 8 9 9 12 15 14 16 14 15 15 16 17 11 14 15 16 19 17 15 17 16 2 8
14 15 15 15 13 11 9 8 6 8 10 12 14 19 8 7 2 7 9 10 9 8 8 10 9 12 13 16 16 18 20 17 17 18 19 17 17 16 19 18 19 6 8 8 5
15 16 16 15 14 12 9 7 6 7 11 12 11 9 9 15 6 5 6 10 9 9 10 9 8 8 10 14 10 12 18 17 18 20 21 18 15 15 23 18 13 7 8 9 6
16 16 15 14 13 11 8 6 6 8 12 12 8 8 9 8 4 11 9 12 11 9 10 12 5 11 14 14 18 19 19 19 19 19 3 4 14 17 4 3 7 9 12 6 9
16 15 13 14 14 12 8 5 8 10 11 8 6 8 10 3 7 6 12 12 10 8 9 9 5 13 14 14 14 15 17 21 19 9 6 10 13 15 16 7 10 12 11 13 11
14 13 13 13 15 12 7 2 8 7 9 8 10 8 9 3 1 4 6 8 10 8 9 10 7 13 12 11 14 17 18 20 19 11 9 16 17 17 15 16 16 16 11 10 12
14 13 12 17 16 14 6 2 3 4 9 10 4 11 16 12 7 8 7 7 11 10 13 13 12 14 17 17 20 20 20 20 18 18 20 20 21 21 16 17 18 16 16 17 8
11 12 15 18 17 15 5 2 2 1 9 17 22 22 21 16 12 13 11 8 13 15 15 15 17 19 17 17 19 21 19 19 21 21 19 21 20 20 18 20 23 22 8 16 14
10 11 19 20 19 7 6 5 6 5 8 14 22 26 16 18 22 19 17 13 15 16 17 20 15 16 10 12 15 20 18 20 22 21 20 18 23 21 23 21 15 11 14 15 14
9 15 21 21 7 6 5 9 7 1 7 15 12 2 10 6 11 17 19 15 15 19 18 17 17 19 20 19 17 20 17 21 22 17 16 18 17 20 22 21 21 18 16 12 13
12 25 28 18 11 7 5 10 5 3 6 3 7 6 8 13 2 4 16 10 16 18 15 15 12 14 17 15 16 21 15 14 16 15 17 28 14 17 21 17 14 14 12 13 15
20 28 26 3 1 3 12 7 2 4 11 8 9 9 11 16 9 7 6 7 9 16 19 23 18 14 12 12 13 10 11 15 15 14 15 22 18 17 4 10 12 10 13 13 14
24 27 19 9 7 7 8 5 4 8 5 10 8 12 14 12 15 9 11 12 9 8 12 16 19 16 15 12 13 13 9 9 9 10 14 19 17 14 15 12 12 11 12 12 13
24 26 9 7 12 12 4 3 6 14 22 2 3 12 15 13 12 11 12 13 16 15 12 10 11 7 5 13 11 15 13 8 16 14 17 20 14 7 14 15 13 11 11 12 15
22 4 1 4 14 11 6 4 11 14 17 16 9 11 14 16 7 12 13 15 14 12 14 9 13 5 5 3 4 7 12 14 17 14 14 12 19 11 15 13 13 13 15 16 17
7 4 2 3 5 8 5 8 17 20 7 14 19 13 13 17 12 8 10 7 15 4 4 3 12 12 16 14 8 12 11 10 5 8 13 10 5 3 9 11 12 12 13 13 14
5 5 2 7 1 6 7 14 16 19 16 12 14 16 14 16 15 14 9 5 3 5 4 5 9 11 14 12 14 11 13 11 11 10 11 14 2 3 4 6 9 10 11 11 14
4 4 5 11 4 1 10 17 17 18 21 13 10 13 16 17 15 12 13 6 9 3 6 5 4 10 17 15 15 16 15 15 10 10 11 10 4 6 3 3 7 9 11 14 14
5 4 1 6 8 7 11 21 21 17 15 13 15 12 14 11 10 11 11 9 6 3 3 2 5 7 7 12 13 14 13 15 10 8 15 11 1 5 3 5 8 9 13 13 15
5 6 1 2 2 12 14 19 24 16 18 15 13 12 10 9 8 4 11 7 5 5 6 4 5 7 11 6 9 6 11 11 12 9 12 9 3 4 3 5 7 10 12 12 12
4 6 11 11 15 13 8 10 19 21 17 14 15 15 13 10 14 12 11 8 4 5 4 4 8 7 11 17 17 16 15 13 10 12 10 5 6 5 4 6 7 9 10 11 13
6 7 13 6 19 18 11 15 22 21 15 18 16 13 13 15 13 7 12 10 6 9 11 9 7 4 11 17 18 17 16 17 12 8 10 5 4 8 8 7 8 9 9 10 12
6 13 11 11 19 15 20 14 18 16 14 17 16 10 16 10 6 9 3 6 8 12 11 9 5 3 7 10 4 11 8 11 8 7 7 11 4 12 9 7 7 7 8 9 12
Wind_Direction
230 234 236 246 255 267 297 313 324 330 333 333 332 326 320 320 310 297 259 23 35 358 324 280 254 252 239 257 253 276 262 260 269 276 333 347 345 10 301 276 295 311 297 309 313
225 230 229 232 241 246 277 301 315 325 336 333 332 327 321 326 303 277 142 137 92 36 243 244 257 235 250 253 244 224 260 260 279 313 326 308 323 322 322 312 306 316 306 285 349
223 231 232 231 230 243 256 283 306 324 333 335 331 324 315 326 287 96 141 114 126 190 252 291 292 293 264 259 247 242 257 278 291 306 329 309 300 299 289 280 289 309 327 329 331
219 223 225 223 227 228 247 273 299 321 328 334 329 323 312 316 324 97 147 151 201 257 278 267 271 264 262 274 259 246 258 261 275 295 304 302 304 293 290 286 290 284 286 330 348
219 218 220 220 214 218 229 258 295 316 324 329 327 326 319 309 295 144 159 178 232 237 264 273 276 289 278 283 287 272 278 278 275 283 281 283 272 275 278 282 289 286 281 324 263
225 224 217 212 213 207 213 242 270 304 312 317 323 319 278 282 23 142 220 187 247 232 254 252 261 281 296 286 286 289 297 297 294 283 283 269 271 276 268 268 272 259 284 267 243
222 224 220 207 208 200 204 225 262 294 301 306 312 297 277 259 308 290 224 267 265 254 270 267 280 285 286 289 273 299 292 278 268 264 259 248 265 262 265 239 238 250 246 244 235
231 225 222 208 199 189 195 223 268 287 297 297 297 268 257 283 326 291 254 259 244 263 262 283 307 278 278 281 284 282 268 272 270 264 202 154 272 276 42 5 271 229 242 280 306
227 219 214 202 186 177 183 220 270 274 277 282 254 228 274 179 239 229 225 243 238 220 245 258 270 263 269 262 267 258 259 266 271 200 214 201 255 283 298 268 235 252 263 275 277
233 216 202 196 173 161 165 227 278 288 238 222 252 272 257 253 58 285 238 245 246 210 223 227 240 238 244 241 259 274 291 298 306 309 239 250 250 243 247 277 278 262 248 267 265
221 216 195 176 159 138 137 277 281 198 227 221 207 260 293 299 141 231 227 218 230 242 227 226 230 239 252 249 258 275 284 286 288 296 297 288 284 279 296 283 279 276 263 232 211
219 208 177 160 150 143 144 163 280 255 288 245 245 258 273 279 263 253 208 216 218 237 239 239 249 245 260 282 286 284 285 286 290 284 280 283 293 289 278 276 270 265 287 50 42
208 190 162 143 135 144 173 197 271 280 263 271 253 255 240 237 253 250 249 218 250 244 242 256 263 280 242 246 281 283 276 272 275 293 291 290 276 276 275 293 293 105 76 56 34
193 157 135 130 123 167 188 215 241 4 278 278 218 251 192 228 272 241 240 209 237 249 262 267 273 279 270 281 288 264 278 290 297 305 288 296 291 297 287 294 301 76 59 35 22
169 145 148 152 137 176 171 189 139 221 284 47 98 106 149 181 58 159 209 239 238 244 238 248 273 283 258 272 278 287 309 303 301 289 296 275 278 285 287 280 66 63 47 25 17
160 159 159 76 14 195 145 97 167 183 233 210 138 181 179 209 231 125 189 245 273 245 254 265 269 263 295 298 294 316 300 289 276 268 262 273 280 274 3 64 74 49 41 27 8
170 165 168 162 168 149 130 126 120 219 195 202 178 177 201 189 219 201 196 197 220 210 241 253 253 242 233 259 274 256 256 276 275 258 258 272 278 66 93 83 59 38 28 17 3
180 174 216 167 147 145 163 93 201 227 232 71 175 179 215 209 215 205 238 229 212 251 273 275 270 258 243 219 260 289 291 283 290 288 295 310 292 93 98 67 48 28 31 13 4
175 147 104 268 160 162 154 193 216 224 258 243 167 221 222 237 208 210 234 256 250 226 225 278 258 55 60 2 260 271 274 288 277 287 290 273 256 86 47 38 24 10 13 9 10
140 121 185 238 171 163 177 218 236 233 264 282 213 209 227 215 179 219 245 227 243 257 42 295 280 267 270 249 223 264 287 296 259 268 256 262 317 64 14 5 4 7 9 12 12
144 142 138 111 319 224 180 213 229 247 271 250 224 229 231 244 228 217 227 81 187 112 243 256 252 270 279 267 255 243 243 237 261 268 282 291 321 83 30 2 351 358 1 21 19
144 165 174 149 187 211 225 216 223 263 217 235 271 269 251 257 256 243 232 255 135 228 204 250 281 279 274 270 241 249 257 263 223 250 257 280 284 82 89 19 6 7 8 16 17
117 103 22 193 169 211 249 232 237 244 209 212 231 242 252 249 242 244 236 70 111 167 209 191 237 280 268 229 245 256 263 261 255 247 269 275 290 126 96 48 37 16 18 13 10
136 133 130 238 264 211 207 229 215 232 245 205 232 236 234 228 228 210 235 126 148 224 52 80 249 260 273 310 290 283 276 262 251 251 269 267 111 152 75 45 32 27 20 14 7
176 179 173 183 215 203 247 216 220 217 223 218 221 229 204 218 221 216 230 121 162 189 231 231 251 266 271 276 275 280 280 276 261 270 273 331 2 130 97 71 50 33 22 13 9
150 173 165 196 200 197 238 208 219 220 193 215 214 207 206 222 220 222 237 205 172 210 215 204 242 322 296 269 256 255 251 258 256 249 262 254 259 120 108 83 57 41 27 19 12
204 212 173 193 181 183 215 217 215 218 199 216 200 212 217 220 259 265 334 260 163 206 193 229 196 250 260 294 296 262 262 235 252 243 257 255 118 136 119 89 56 46 39 24 17